Location: *
(43.7000°S, 168.7000°W)
Time: 14:56:45
(UTC+00:00)

Cosmos 1655 Rocket - Pass Details

Date: 07 July 2020
Orbit: 971 x 1006 km, 83.0° (Epoch: 03 August)

Event Time Altitude Azimuth Distance (km) Brightness Sun altitude
Rises 17:41:47 0° 3° (N) 3,678 7.3 -11.6°
Reaches altitude 10° 17:44:18 10° 6° (N) 2,733 6.7 -11.1°
Maximum altitude 17:50:29 67° 86° (E) 1,066 4.5 -10.1°
Drops below altitude 10° 17:56:44 10° 167° (SSE) 2,751 6.3 -9.0°
Sets 17:59:16 0° 169° (S) 3,704 6.9 -8.6°
